(482167) = 2005 UZ453 = 2010 TQ152

Discovered at Mount Lemmon on 2005-10-30 by Mt. Lemmon Survey.

Orbit

Orbit type: Main Belt

Note: WebGL enabled browser required.

epoch2024-03-31.0
epoch JD2460400.5
perihelion date2023-12-10.16199
perihelion JD2460288.66199
argument of perihelion (°)141.09113
ascending node (°)32.63598
inclination (°)8.75212
eccentricity0.0834534
perihelion distance (AU)2.8237837
Tisserand w.r.t. Jupiter3.2
ΔV w.r.t. Earth (km/sec)10.8
semimajor axis (AU)3.0808948
mean anomaly (°)20.38346
mean daily motion (°/day)0.18225880
aphelion distance (AU)3.338
period (years)5.41
P-vector [x]-0.99006861
P-vector [y]0.05658195
P-vector [z]0.12869588
Q-vector [x]-0.11415048
Q-vector [y]-0.85789040
Q-vector [z]-0.50099274
absolute magnitude16.45
phase slope0.15
uncertainty0
referenceMPEC 2024-F50
observations used125
oppositions11
arc length (days)6715
first opposition used2005
last opposition used2024
residual rms (arc-secs)0.83
perturbers coarse indicatorM-v
perturbers precise indicator003Ek
first observation date used2005-10-30.0
last observation date used2024-03-19.0
computer nameMPCLINUX
Minimum Orbit Intersection Distances (in AU)
for orbit epoch: 2460400.5, reference: E2024-G95
Mercury2.42231
Venus2.10463
Earth1.83403
Mars1.17485
Jupiter1.63187
Saturn5.95253
Uranus15.6293
Neptune26.524

Observations

127 total observations over interval: 2005 10 30.34130 – 2024 03 19.513275
These data are available for download (format description).

